IRIDIUM 111

Last updated on Sun Jun 21 2026 00:03:13 GMT+0000 (Coordinated Universal Time)

1 41926U 17003K 26171.26045009 .00000210 00000+0 67928-4 0 9994 2 41926 86.3960 87.0928 0002237 83.0207 277.1243 14.34219109493695
UTC large
Height (km)
Speed (km/s)
/
Latitude / Longitude
Inclination (degrees)
Orbital Period (minutes)
Azimuth
Elevation
Range (km)
Doppler Factor

Next 0 passes for location: London (51.5072 / 0.1276)

No passes found over London.
IRIDIUM 111